[[{"header":{"parameterUnit":"m.s-1","parameterCategory":1,"la1":30.2991,"la2":30.254,"lo1":-89.0895,"lo2":-89.0444,"dy":0.0017,"dx":0.0017,"nx":28,"ny":28,"refTime":"2023-11-14T03:00:00:Z","depth":0,"parameterNumber":2,"parameterNumberName":"U-component_of_WINDS"},"data":[0,0,0,0,0,0,0,0,0,0,0,0,0,0,0,0,0,0,0,0,0,0,0,0,0,0,0,0,0,0,0,0,0,0,0,0,0,0,0,0,0,0,0,0,0,0,0,0,0,0,0,0,0,0,0,0,0,0,-4.7539,-4.754,0,-4.7677,-4.7679,-4.768,-4.7597,-4.7593,-4.7589,-4.7585,-4.7729,-4.7736,-4.7744,0,0,0,0,0,0,0,0,0,0,0,0,0,-4.7204,-4.7211,-4.7539,-4.754,-4.7542,-4.7677,-4.7679,-4.7681,-4.7598,-4.7593,-4.7588,-4.7583,-4.7727,-4.7735,-4.7745,0,0,0,0,0,0,0,0,0,0,0,0,0,-4.7347,-4.7213,-4.7538,-4.7517,-4.7516,-4.7677,-4.7679,-4.7681,-4.7599,-4.7593,-4.7587,-4.7581,-4.7724,-4.7735,-4.7746,-4.7936,0,0,-4.778,-4.7785,0,0,0,0,0,0,0,0,-4.7339,-4.7359,-4.7518,-4.7519,-4.7518,-4.7614,-4.7614,-4.7767,-4.76,-4.7568,-4.7585,-4.7578,-4.7696,-4.7709,-4.7748,-4.7942,-4.7948,-4.7781,-4.7788,-4.7793,-4.7796,0,0,0,0,0,0,0,-4.7329,-4.7353,-4.7593,-4.7521,-4.7521,-4.7501,-4.7515,-4.7642,-4.7664,-4.757,-4.7564,-4.7582,-4.7694,-4.7737,-4.7751,-4.7951,-4.7781,-4.7791,-4.7798,-4.7803,-4.831,-4.8317,0,0,0,0,0,0,-4.7321,-4.7345,-4.7589,-4.7598,-4.7412,-4.7512,-4.7527,-4.7589,-4.7662,-4.7667,-4.7587,-4.7577,-4.7721,-4.7738,-4.7756,-4.7985,-4.7793,-4.7804,-4.781,-4.8304,-4.8312,-4.8319,0,0,0,0,0,0,-4.7314,-4.7343,-4.7583,-4.747,-4.7499,-4.7524,-4.7594,-4.7595,-4.7638,-4.7674,-4.7678,-4.7626,-4.7717,-4.774,-4.7892,-4.7989,-4.7809,-4.7819,-4.8296,-4.8306,-4.8315,-4.8444,0,0,0,0,0,0,-4.7305,-4.7341,-4.7413,-4.7472,-4.7505,-4.7717,-4.76,-4.7602,-4.7657,-4.7646,-4.7713,-4.7718,-4.7714,-4.7876,-4.7903,-4.8001,-4.7828,-4.8287,-4.83,-4.8312,-4.8431,-4.8457,-4.8479,0,0,0,0,0,-4.7293,-4.7443,-4.7417,-4.7447,-4.7596,-4.7723,-4.7742,-4.7734,-4.7665,-4.7738,-4.7762,-4.7716,-4.7973,-4.7892,-4.7922,-4.8025,-4.8281,-4.8297,-4.8311,-4.842,-4.8452,-4.8479,0,0,0,0,0,0,-4.7395,-4.7451,-4.7422,-4.7596,-4.7655,-4.7708,-4.78,-4.7767,-4.7847,-4.7834,-4.782,-4.7836,-4.7996,-4.8025,-4.7933,-4.8214,-4.8117,-4.8139,-4.8189,-4.8219,-4.8243,-4.8234,-4.7837,0,0,0,0,0,-4.7438,-4.7536,-4.7579,-4.7728,-4.776,-4.7775,-4.783,-4.7819,-4.788,-4.7905,-4.7939,-4.8001,-4.8096,-4.8159,-4.8248,-4.8434,-4.8449,-4.852,-4.8544,-4.8563,-4.8583,-4.8687,-4.872,-4.8369,-4.8368,-4.8368,0,0,-4.7527,-4.757,-4.7632,-4.775,-4.7795,-4.7898,-4.7797,-4.7909,-4.7986,-4.7922,-4.8069,-4.8096,-4.8164,-4.8335,-4.8412,-4.8365,-4.8683,-4.8583,-4.8598,-4.8607,-4.8706,-4.8739,-4.8769,-4.8379,-4.8377,-4.8375,0,0,-4.7743,-4.7784,-4.7914,-4.7961,-4.803,-4.804,-4.8071,-4.813,-4.8146,-4.8292,-4.8247,-4.8338,-4.8501,-4.8553,-4.86,-4.8837,-4.8799,-4.8866,-4.8993,-4.9094,-4.9122,-4.9146,-4.9234,-4.9265,-4.8885,-4.8886,-4.8886,0,-4.7846,-4.7999,-4.7985,-4.8103,-4.8157,-4.8103,-4.8236,-4.8282,-4.8377,-4.8416,-4.8361,-4.8566,-4.8608,-4.8791,-4.8849,-4.8888,-4.8926,-4.886,-4.9118,-4.9143,-4.9166,-4.9249,-4.9282,-4.8894,-4.8893,-4.8892,-4.8891,0,-4.8123,-4.823,-4.8327,-4.842,-4.8485,-4.8609,-4.8616,-4.8683,-4.8666,-4.8682,-4.8834,-4.8882,-4.8981,-4.9023,-4.9007,-4.9206,-4.9174,-4.9119,-4.9022,-4.9208,-4.9286,-4.9317,-4.8905,-4.8902,-4.89,-4.8898,0,0,-4.8408,-4.8493,-4.8529,-4.8572,-4.8644,-4.8727,-4.885,-4.8946,-4.9006,-4.9073,-4.9177,-4.9317,-4.9267,-4.9321,-4.931,-4.9399,-4.9587,-4.9333,-4.9335,-4.9381,-4.9812,-4.9855,-4.9892,-4.9561,-4.9567,-4.9572,-4.9807,0,-4.863,-4.8844,-4.8837,-4.9037,-4.9137,-4.9087,-4.9194,-4.9252,-4.927,-4.9358,-4.9377,-4.9478,-4.9403,-4.9436,-4.9521,-4.9546,-4.9674,-4.9529,-4.966,-4.9665,-4.9647,-4.9932,-4.9977,-5.0197,-4.9837,-4.9842,-4.9846,0,-4.8919,-4.8997,-4.9207,-4.9267,-4.9308,-4.9405,-4.9494,-4.9578,-4.9642,-4.9649,-4.9711,-4.9687,-4.9813,-4.971,-4.9885,-4.9787,-4.984,-4.9861,-4.9869,-4.9883,-4.9769,-4.9957,-5.0267,-5.0301,-4.9894,-4.989,-4.9886,0,-4.9109,-4.9266,-4.9413,-4.9451,-4.9523,-4.9593,-4.9626,-4.9684,-4.9744,-4.9822,-4.9861,-4.9952,-5.0003,-5.0076,-5.0078,-5.0002,-5.0256,-5.0153,-5.0267,-5.0268,-5.0324,-5.0321,-5.065,-5.0355,-5.0354,-5.0353,-5.0353,0,-4.936,-4.9492,-4.95,-4.959,-4.9737,-4.9727,-4.9872,-4.9899,-4.9951,-5.0048,-5.0009,-5.0101,-5.0097,-5.019,-5.0192,-5.0338,-5.0361,-5.0372,-5.0371,-5.0377,-5.0376,-5.0413,-5.0399,-5.0362,-5.036,-5.0359,-5.0357,0,-4.9598,-4.9609,-4.9766,-4.9822,-4.9839,-4.9945,-4.9993,-5.0081,-5.0095,-5.0217,-5.0245,-5.0269,-5.0377,-5.0386,-5.051,-5.0512,-5.069,-5.0671,-5.0669,-5.0666,-5.0781,-5.0772,-5.1148,-5.1198,-5.0867,-5.087,-5.0873,0,-4.9759,-4.9859,-4.9926,-4.9988,-5.0026,-5.0125,-5.0185,-5.018,-5.0245,-5.0326,-5.0404,-5.0508,-5.0591,-5.0766,-5.0795,-5.0891,-5.0876,-5.1002,-5.089,-5.0894,-5.0882,-5.0877,-5.0888,-5.1024,-5.1028,-5.1031,-5.1033,0,-5.0044,-5.0045,-5.0133,-5.0225,-5.0299,-5.037,-5.0437,-5.049,-5.0492,-5.0568,-5.0677,-5.0742,-5.087,-5.0974,-5.1068,-5.1104,-5.1071,-5.1067,-5.11,-5.1108,-5.1103,-5.111,-5.073,-5.1059,-5.1057,-5.1055,-5.1053,-5.1052,-5.025,-5.0338,-5.04,-5.05,-5.055,-5.0614,-5.0699,-5.0725,-5.0816,-5.092,-5.091,-5.1033,-5.1096,-5.1219,-5.1262,-5.1359,-5.1317,-5.1362,-5.1375,-5.1387,-5.14,-5.1086,-5.1375,-5.1375,-5.1374,-5.1373,-5.1373,0,-5.0536,-5.0573,-5.0666,-5.0761,-5.0841,-5.0801,-5.0874,-5.0944,-5.1051,-5.1113,-5.1196,-5.1323,-5.1425,-5.1462,-5.1562,-5.1632,-5.162,-5.1659,-5.1655,-5.1665,-5.1431,-5.1394,-5.1668,-5.1668,-5.1668,-5.1668,-5.1668,-5.1668,-5.0694,-5.0841,-5.0849,-5.1021,-5.1058,-5.1177,-5.1223,-5.1282,-5.1331,-5.1475,-5.156,-5.1583,-5.1636,-5.1739,-5.1832,-5.184,-5.188,-5.1927,-5.1929,-5.171,-5.1681,-5.1652,-5.1618,-5.1935,-5.1935,-5.2156,-5.2158,-5.2159]},{"header":{"parameterUnit":"m.s-1","parameterCategory":1,"la1":30.2991,"la2":30.254,"lo1":-89.0895,"lo2":-89.0444,"dy":0.0017,"dx":0.0017,"nx":28,"ny":28,"refTime":"2023-11-14T03:00:00:Z","depth":0,"parameterNumber":3,"parameterNumberName":"V-component_of_WINDS"},"data":[0,0,0,0,0,0,0,0,0,0,0,0,0,0,0,0,0,0,0,0,0,0,0,0,0,0,0,0,0,0,0,0,0,0,0,0,0,0,0,0,0,0,0,0,0,0,0,0,0,0,0,0,0,0,0,0,0,0,-6.3466,-6.3465,0,-6.3391,-6.339,-6.3389,-6.3255,-6.3252,-6.325,-6.3248,-6.3171,-6.3171,-6.3172,0,0,0,0,0,0,0,0,0,0,0,0,0,-6.3495,-6.3495,-6.3466,-6.3465,-6.3464,-6.3391,-6.339,-6.3389,-6.3255,-6.3252,-6.3249,-6.3246,-6.3171,-6.3171,-6.3172,0,0,0,0,0,0,0,0,0,0,0,0,0,-6.3457,-6.3495,-6.3466,-6.3389,-6.3381,-6.3391,-6.339,-6.3388,-6.3256,-6.3252,-6.3248,-6.3245,-6.3171,-6.3171,-6.3172,-6.3251,0,0,-6.3173,-6.3174,0,0,0,0,0,0,0,0,-6.346,-6.3456,-6.3401,-6.3394,-6.3386,-6.3328,-6.3371,-6.3342,-6.3257,-6.3304,-6.3247,-6.3243,-6.3227,-6.3222,-6.3216,-6.3248,-6.3244,-6.3173,-6.3174,-6.3174,-6.3174,0,0,0,0,0,0,0,-6.3462,-6.3459,-6.3436,-6.3401,-6.3391,-6.3358,-6.3348,-6.3365,-6.3287,-6.3299,-6.3289,-6.3282,-6.3222,-6.3216,-6.3214,-6.3243,-6.3173,-6.3174,-6.3174,-6.3174,-6.3333,-6.3336,0,0,0,0,0,0,-6.3476,-6.3462,-6.3439,-6.3434,-6.3414,-6.336,-6.335,-6.3351,-6.3287,-6.3273,-6.3286,-6.3276,-6.3217,-6.3213,-6.321,-6.3297,-6.3174,-6.3174,-6.3175,-6.3329,-6.3334,-6.3338,0,0,0,0,0,0,-6.3477,-6.3475,-6.3442,-6.3445,-6.3438,-6.3364,-6.3366,-6.3351,-6.3346,-6.3276,-6.3262,-6.3295,-6.3214,-6.321,-6.3241,-6.3293,-6.3175,-6.3175,-6.3324,-6.333,-6.3336,-6.3473,0,0,0,0,0,0,-6.3479,-6.3477,-6.3506,-6.3447,-6.3439,-6.3475,-6.3369,-6.3352,-6.3347,-6.3334,-6.3281,-6.3269,-6.3211,-6.3241,-6.3242,-6.3291,-6.3175,-6.3319,-6.3327,-6.3334,-6.3463,-6.3483,-6.3499,0,0,0,0,0,-6.348,-6.3549,-6.3509,-6.3506,-6.3474,-6.3478,-6.3473,-6.3405,-6.3352,-6.338,-6.3335,-6.327,-6.3287,-6.3246,-6.3245,-6.3296,-6.3316,-6.3325,-6.3333,-6.3455,-6.3479,-6.3499,0,0,0,0,0,0,-6.3617,-6.354,-6.3494,-6.3545,-6.3519,-6.3455,-6.349,-6.3433,-6.3421,-6.341,-6.3326,-6.3315,-6.3357,-6.3329,-6.3285,-6.3367,-6.3291,-6.33,-6.3384,-6.3406,-6.3423,-6.3429,-6.3176,0,0,0,0,0,-6.3653,-6.3663,-6.3594,-6.3646,-6.3635,-6.3565,-6.3564,-6.3514,-6.3483,-6.3472,-6.3429,-6.3402,-6.3401,-6.3402,-6.3397,-6.3459,-6.3444,-6.3493,-6.3511,-6.3526,-6.3535,-6.3563,-6.3583,-6.3367,-6.3367,-6.3366,0,0,-6.3728,-6.3687,-6.3698,-6.3673,-6.3646,-6.3657,-6.3557,-6.3573,-6.358,-6.3474,-6.3501,-6.3469,-6.3433,-6.3479,-6.3498,-6.3457,-6.3591,-6.3537,-6.355,-6.355,-6.3574,-6.3594,-6.3613,-6.3373,-6.3372,-6.3371,0,0,-6.3869,-6.384,-6.3879,-6.3854,-6.3815,-6.3768,-6.3777,-6.3722,-6.3696,-6.3721,-6.3641,-6.3648,-6.3649,-6.3625,-6.3614,-6.3745,-6.3684,-6.3746,-6.3839,-6.3867,-6.3884,-6.3899,-6.3944,-6.3961,-6.3755,-6.3755,-6.3755,0,-6.3967,-6.3981,-6.3906,-6.3927,-6.3918,-6.3821,-6.3859,-6.3839,-6.3801,-6.3797,-6.3752,-6.3749,-6.3718,-6.3756,-6.3788,-6.3783,-6.379,-6.3751,-6.3888,-6.3902,-6.3914,-6.3956,-6.3973,-6.3763,-6.3762,-6.3761,-6.376,0,-6.4102,-6.4113,-6.4149,-6.4113,-6.4108,-6.4138,-6.4067,-6.4071,-6.402,-6.3978,-6.4004,-6.3963,-6.3947,-6.3953,-6.3904,-6.3984,-6.396,-6.3903,-6.3824,-6.3944,-6.3982,-6.3997,-6.3774,-6.3771,-6.3769,-6.3767,0,0,-6.4328,-6.425,-6.4264,-6.4246,-6.4195,-6.4202,-6.4227,-6.421,-6.4214,-6.4191,-6.4209,-6.421,-6.4156,-6.4143,-6.4091,-6.4117,-6.422,-6.4056,-6.4054,-6.4087,-6.4303,-6.4345,-6.4365,-6.418,-6.4182,-6.4185,-6.4305,0,-6.4458,-6.4495,-6.4428,-6.4481,-6.4489,-6.4397,-6.4418,-6.4389,-6.4349,-6.435,-6.4306,-6.4307,-6.4237,-6.4228,-6.4249,-6.4204,-6.4262,-6.4194,-6.4194,-6.4195,-6.4205,-6.4385,-6.443,-6.4546,-6.432,-6.4322,-6.4324,0,-6.4614,-6.4598,-6.4652,-6.4595,-6.4596,-6.4617,-6.4595,-6.4597,-6.4562,-6.4531,-6.4516,-6.4454,-6.4473,-6.4397,-6.4421,-6.4376,-6.4372,-6.4349,-6.4352,-6.4349,-6.4266,-6.4385,-6.4581,-6.4598,-6.4347,-6.4345,-6.4343,0,-6.4772,-6.4763,-6.4793,-6.4781,-6.4717,-6.4733,-6.4707,-6.4668,-6.4662,-6.4643,-6.4638,-6.4622,-6.4613,-6.4602,-6.4537,-6.4489,-6.4568,-6.4488,-6.4542,-6.4544,-6.4562,-6.4562,-6.476,-6.4562,-6.4562,-6.4562,-6.4561,0,-6.4923,-6.4959,-6.4863,-6.4882,-6.4919,-6.4841,-6.488,-6.4845,-6.481,-6.4819,-6.4739,-6.475,-6.4663,-6.4664,-6.4613,-6.464,-6.4637,-6.4611,-6.4597,-6.4618,-6.4621,-6.4613,-6.4603,-6.4566,-6.4565,-6.4564,-6.4564,0,-6.5105,-6.5042,-6.5069,-6.5006,-6.4991,-6.5021,-6.4966,-6.498,-6.4935,-6.4948,-6.4946,-6.4875,-6.4871,-6.4805,-6.4788,-6.4753,-6.48,-6.4771,-6.4812,-6.4802,-6.4859,-6.4854,-6.5058,-6.508,-6.4871,-6.4873,-6.4874,0,-6.5205,-6.5231,-6.517,-6.517,-6.5148,-6.515,-6.5143,-6.5067,-6.5063,-6.5023,-6.5041,-6.5031,-6.5019,-6.5017,-6.4963,-6.4949,-6.4918,-6.499,-6.4916,-6.4935,-6.4917,-6.4916,-6.4917,-6.5006,-6.5009,-6.5011,-6.5013,0,-6.5389,-6.5356,-6.5349,-6.5331,-6.5325,-6.5307,-6.5284,-6.5289,-6.5205,-6.5205,-6.52,-6.519,-6.5171,-6.5161,-6.5137,-6.5109,-6.5047,-6.5037,-6.5048,-6.5069,-6.5091,-6.5078,-6.4854,-6.5033,-6.5031,-6.5029,-6.5028,-6.5027,-6.5532,-6.5549,-6.5509,-6.5503,-6.5478,-6.5458,-6.5467,-6.5423,-6.5417,-6.5396,-6.5351,-6.5353,-6.5314,-6.5274,-6.5251,-6.5251,-6.5213,-6.5231,-6.5234,-6.524,-6.525,-6.5092,-6.5246,-6.5245,-6.5245,-6.5244,-6.5244,0,-6.571,-6.5679,-6.5675,-6.5645,-6.564,-6.5582,-6.5553,-6.5552,-6.5555,-6.5524,-6.5513,-6.5506,-6.5496,-6.5441,-6.5423,-6.5433,-6.5404,-6.5431,-6.5429,-6.5423,-6.5285,-6.5276,-6.5455,-6.5455,-6.5455,-6.5455,-6.5455,-6.5455,-6.5802,-6.5828,-6.5791,-6.5802,-6.577,-6.5771,-6.576,-6.574,-6.5715,-6.5711,-6.5701,-6.5665,-6.5624,-6.5603,-6.559,-6.5574,-6.5571,-6.5607,-6.5582,-6.5454,-6.5433,-6.5414,-6.5405,-6.5607,-6.5608,-6.5719,-6.572,-6.5721]}]]